Hourly Data Report for June 10, 2017

FISHER BRANCH (AUT)
MANITOBA

51°05'00.100" N
97°33'16.200" W
253.00 m
50309J6
71442
WSZ

Download Data

Hourly Data (June 2017)
Hourly Data Report for June 10, 2017
TIME
LST
Temp Definition
°C
Dew Point Definition
°C
Rel Hum Definition
%
Precip. Amount Definition
mm

Wind Dir Definition
10's deg

Wind Spd Definition
km/h
Visibility Definition
km
Stn Press Definition
kPa
Hmdx Definition


Wind Chill Definition


Weather Definition


00:00 16.8 14.0 84 0.0 15 6   96.58     LegendNANA
01:00 15.6 13.2 85 0.0 8 3   96.55     LegendNANA
02:00 14.4 13.1 92 0.0 5 6   96.44     LegendNANA
03:00 13.6 12.5 93 0.0 6 4   96.36     LegendNANA
04:00 13.7 12.5 93 0.0 6 3   96.28     LegendNANA
05:00 14.3 13.3 94 0.0 6 4   96.18     LegendNANA
06:00 15.9 14.6 92 0.0 8 5   96.10     LegendNANA
07:00 16.6 14.9 90 0.0 16 15   96.12     LegendNANA
08:00 16.5 15.1 92 0.0 22 8   96.09     LegendNANA
09:00 16.5 15.5 94 1.4 22 10   96.04     LegendNANA
10:00 17.1 16.0 93 0.2 12 8   95.83     LegendNANA
11:00 18.4 16.3 88 0.0 25 19   95.98     LegendNANA
12:00 17.8 13.7 77 0.0 29 23   96.00     LegendNANA
13:00 19.1 12.1 64 0.0 29 35   96.11     LegendNANA
14:00 19.8 11.7 59 0.0 30 32   96.19     LegendNANA
15:00 19.5 9.9 54 0.0 30 36   96.34     LegendNANA
16:00 20.0 10.6 55 0.0 31 20   96.39     LegendNANA
17:00 19.4 10.8 58 0.0 31 22   96.55     LegendNANA
18:00 16.2 11.3 73 0.0 34 20   96.70     LegendNANA
19:00 13.9 9.9 77 0.0 33 17   96.84     LegendNANA
20:00 11.6 8.9 84 0.0 34 17   96.92     LegendNANA
21:00 10.3 8.0 85 0.0 35 10   97.07     LegendNANA
22:00 9.7 7.7 87 0.0 35 8   97.18     LegendNANA
23:00 9.5 7.9 90 0.0 35 8   97.19     LegendNANA

Notes on Data Quality.

Legend

  • E = Estimated
  • M = Missing
  • NA = Not Available*
  • [empty] = Indicates an unobserved value
Date modified: